• In Latvia
  • List of Countries
  • For 7 days
  • Water Temperature
  • Satellite Maps
  • Weather Map
  • Weather Widgets
  • user-avatar
    Login

    Hourly Weather Naftalan

    Today, 17 October, Tuesday

    Time Temperature Precipitation Wind Pressure Humidity
    00:00 +12°C° 2.8 mm 4 mps 764 mmHg 84%
    01:00 +12°C° 0.2 mm 4 mps 765 mmHg 82%
    02:00 +12°C° 0.2 mm 4 mps 765 mmHg 80%
    03:00 +12°C° 0 mm 3 mps 765 mmHg 76%
    04:00 +12°C° 0 mm 3 mps 765 mmHg 75%
    05:00 +13°C° 0 mm 2 mps 766 mmHg 75%
    06:00 +13°C° 0 mm 2 mps 766 mmHg 74%
    07:00 +14°C° 0.1 mm 2 mps 766 mmHg 68%
    08:00 +16°C° 0.1 mm 2 mps 767 mmHg 62%
    09:00 +16°C° 0 mm 2 mps 767 mmHg 58%
    10:00 +17°C° 0.1 mm 2 mps 767 mmHg 54%
    11:00 +18°C° 0.1 mm 2 mps 767 mmHg 49%
    12:00 +19°C° 0.1 mm 3 mps 767 mmHg 45%
    13:00 +19°C° 0.2 mm 3 mps 767 mmHg 45%
    14:00 +19°C° 0.2 mm 4 mps 767 mmHg 46%
    15:00 +20°C° 0.2 mm 4 mps 767 mmHg 46%
    16:00 +17°C° 0 mm 5 mps 767 mmHg 56%
    17:00 +16°C° 0 mm 6 mps 767 mmHg 65%
    18:00 +15°C° 0 mm 7 mps 767 mmHg 75%
    19:00 +15°C° 0 mm 7 mps 767 mmHg 75%
    20:00 +15°C° 0 mm 7 mps 768 mmHg 75%
    21:00 +15°C° 0 mm 7 mps 768 mmHg 75%
    22:00 +15°C° 0 mm 7 mps 768 mmHg 74%
    23:00 +15°C° 0 mm 7 mps 768 mmHg 73%

    Tomorrow, 18 October, Wednesday

    Time Temperature Precipitation Wind Pressure Humidity
    00:00 +15°C° 0 mm 6 mps 768 mmHg 73%
    01:00 +15°C° 0 mm 6 mps 768 mmHg 71%
    02:00 +14°C° 0 mm 5 mps 768 mmHg 69%
    03:00 +14°C° 0 mm 4 mps 768 mmHg 68%
    04:00 +14°C° 0 mm 4 mps 768 mmHg 67%
    05:00 +14°C° 0 mm 3 mps 768 mmHg 66%
    06:00 +14°C° 0 mm 2 mps 769 mmHg 65%
    07:00 +16°C° 0 mm 2 mps 769 mmHg 59%
    08:00 +18°C° 0 mm 2 mps 769 mmHg 53%
    09:00 +20°C° 0 mm 1 mps 770 mmHg 47%
    10:00 +20°C° 0 mm 2 mps 770 mmHg 45%
    11:00 +21°C° 0 mm 2 mps 770 mmHg 42%
    12:00 +22°C° 0 mm 3 mps 770 mmHg 40%
    13:00 +22°C° 0 mm 3 mps 770 mmHg 40%
    14:00 +22°C° 0 mm 4 mps 770 mmHg 41%
    15:00 +22°C° 0 mm 5 mps 770 mmHg 41%
    16:00 +21°C° 0 mm 5 mps 770 mmHg 49%
    17:00 +19°C° 0 mm 6 mps 770 mmHg 58%
    18:00 +17°C° 0 mm 6 mps 771 mmHg 66%
    19:00 +17°C° 0 mm 6 mps 771 mmHg 69%
    20:00 +17°C° 0 mm 6 mps 771 mmHg 73%
    21:00 +16°C° 0 mm 6 mps 772 mmHg 76%
    22:00 +16°C° 0.1 mm 5 mps 771 mmHg 76%
    23:00 +16°C° 0.1 mm 5 mps 771 mmHg 76%

    Day after tomorrow, 19 October, Thursday

    Time Temperature Precipitation Wind Pressure Humidity
    00:00 +17°C° 0.1 mm 5 mps 771 mmHg 76%
    01:00 +16°C° 0.1 mm 5 mps 771 mmHg 77%
    02:00 +16°C° 0.1 mm 5 mps 771 mmHg 78%
    03:00 +17°C° 0.1 mm 4 mps 771 mmHg 79%
    04:00 +17°C° 0.1 mm 4 mps 771 mmHg 80%
    05:00 +17°C° 0.1 mm 4 mps 771 mmHg 80%
    06:00 +17°C° 0.1 mm 4 mps 770 mmHg 80%
    07:00 +18°C° 0.1 mm 4 mps 771 mmHg 78%
    08:00 +18°C° 0.1 mm 4 mps 771 mmHg 76%
    09:00 +19°C° 0.1 mm 4 mps 771 mmHg 73%
    10:00 +20°C° 0.1 mm 3 mps 770 mmHg 70%
    11:00 +21°C° 0.1 mm 3 mps 770 mmHg 67%
    12:00 +21°C° 0.1 mm 3 mps 769 mmHg 64%
    13:00 +21°C° 0.1 mm 3 mps 769 mmHg 64%
    14:00 +21°C° 0.1 mm 4 mps 769 mmHg 64%
    15:00 +21°C° 0.1 mm 4 mps 768 mmHg 64%
    16:00 +21°C° 0 mm 4 mps 768 mmHg 69%
    17:00 +20°C° 0 mm 4 mps 768 mmHg 74%
    18:00 +19°C° 0 mm 4 mps 768 mmHg 80%
    19:00 +18°C° 0 mm 4 mps 768 mmHg 81%
    20:00 +18°C° 0 mm 4 mps 768 mmHg 83%
    21:00 +18°C° 0 mm 3 mps 768 mmHg 85%
    22:00 +17°C° 0 mm 3 mps 768 mmHg 86%
    23:00 +17°C° 0 mm 2 mps 767 mmHg 87%

    20 October, Friday

    Time Temperature Precipitation Wind Pressure Humidity
    00:00 +17°C° 0 mm 2 mps 767 mmHg 88%
    01:00 +17°C° 0 mm 2 mps 767 mmHg 89%
    02:00 +16°C° 0 mm 2 mps 767 mmHg 89%
    03:00 +16°C° 0 mm 2 mps 766 mmHg 90%
    04:00 +16°C° 0 mm 2 mps 766 mmHg 88%
    05:00 +16°C° 0 mm 2 mps 766 mmHg 87%
    06:00 +14°C° 0 mm 3 mps 766 mmHg 86%
    07:00 +17°C° 0 mm 3 mps 766 mmHg 78%
    08:00 +18°C° 0 mm 3 mps 767 mmHg 70%
    09:00 +20°C° 0 mm 3 mps 767 mmHg 62%
    10:00 +21°C° 0 mm 2 mps 766 mmHg 58%
    11:00 +23°C° 0 mm 2 mps 766 mmHg 54%
    12:00 +24°C° 0 mm 2 mps 765 mmHg 50%
    13:00 +24°C° 0 mm 2 mps 765 mmHg 48%
    14:00 +24°C° 0 mm 1 mps 765 mmHg 46%
    15:00 +25°C° 0 mm 1 mps 765 mmHg 44%
    16:00 +23°C° 0 mm 2 mps 765 mmHg 50%
    17:00 +21°C° 0 mm 2 mps 765 mmHg 57%
    18:00 +20°C° 0 mm 2 mps 765 mmHg 64%
    19:00 +19°C° 0 mm 2 mps 766 mmHg 68%
    20:00 +19°C° 0 mm 2 mps 766 mmHg 72%
    21:00 +18°C° 0 mm 2 mps 766 mmHg 76%
    22:00 +19°C° 0 mm 1 mps 766 mmHg 77%
    23:00 +19°C° 0 mm 1 mps 766 mmHg 78%

    21 October, Saturday

    Time Temperature Precipitation Wind Pressure Humidity
    00:00 +18°C° 0 mm 1 mps 765 mmHg 80%
    01:00 +18°C° 0 mm 1 mps 765 mmHg 79%
    02:00 +18°C° 0 mm 1 mps 765 mmHg 79%
    03:00 +16°C° 0 mm 0 mps 765 mmHg 79%
    04:00 +15°C° 0 mm 0 mps 765 mmHg 78%
    05:00 +15°C° 0 mm 0 mps 766 mmHg 77%
    06:00 +15°C° 0 mm 0 mps 766 mmHg 77%
    07:00 +19°C° 0 mm 1 mps 766 mmHg 69%
    08:00 +20°C° 0 mm 1 mps 766 mmHg 62%
    09:00 +22°C° 0 mm 1 mps 766 mmHg 55%
    10:00 +23°C° 0 mm 1 mps 766 mmHg 50%
    11:00 +24°C° 0 mm 1 mps 766 mmHg 46%
    12:00 +25°C° 0 mm 1 mps 766 mmHg 42%
    13:00 +25°C° 0 mm 1 mps 765 mmHg 41%
    14:00 +25°C° 0 mm 2 mps 765 mmHg 40%
    15:00 +26°C° 0 mm 2 mps 765 mmHg 40%
    16:00 +24°C° 0 mm 3 mps 765 mmHg 50%
    17:00 +22°C° 0 mm 3 mps 765 mmHg 60%
    18:00 +20°C° 0 mm 4 mps 766 mmHg 70%
    19:00 +20°C° 0 mm 4 mps 766 mmHg 73%
    20:00 +19°C° 0 mm 3 mps 766 mmHg 76%
    21:00 +19°C° 0 mm 3 mps 766 mmHg 78%
    22:00 +18°C° 0 mm 3 mps 766 mmHg 79%
    23:00 +18°C° 0 mm 3 mps 765 mmHg 79%

    22 October, Sunday

    Time Temperature Precipitation Wind Pressure Humidity
    00:00 +18°C° 0 mm 3 mps 765 mmHg 80%
    01:00 +18°C° 0 mm 3 mps 765 mmHg 80%
    02:00 +17°C° 0 mm 2 mps 765 mmHg 81%
    03:00 +17°C° 0 mm 2 mps 764 mmHg 81%
    04:00 +17°C° 0 mm 2 mps 764 mmHg 81%
    05:00 +17°C° 0 mm 2 mps 764 mmHg 81%
    06:00 +17°C° 0 mm 3 mps 764 mmHg 81%
    07:00 +18°C° 0 mm 3 mps 764 mmHg 75%
    08:00 +20°C° 0 mm 3 mps 764 mmHg 69%
    09:00 +21°C° 0 mm 3 mps 764 mmHg 64%
    10:00 +22°C° 0 mm 3 mps 763 mmHg 59%
    11:00 +24°C° 0 mm 3 mps 762 mmHg 55%
    12:00 +25°C° 0 mm 3 mps 762 mmHg 51%
    13:00 +25°C° 0 mm 3 mps 761 mmHg 51%
    14:00 +25°C° 0 mm 4 mps 761 mmHg 51%
    15:00 +25°C° 0 mm 4 mps 760 mmHg 51%
    16:00 +22°C° 0 mm 4 mps 760 mmHg 59%
    17:00 +21°C° 0 mm 4 mps 760 mmHg 67%
    18:00 +20°C° 0 mm 4 mps 760 mmHg 75%
    19:00 +19°C° 0 mm 3 mps 760 mmHg 77%
    20:00 +19°C° 0 mm 3 mps 760 mmHg 79%
    21:00 +19°C° 0 mm 3 mps 760 mmHg 81%
    22:00 +18°C° 0 mm 3 mps 760 mmHg 76%
    23:00 +18°C° 0 mm 3 mps 759 mmHg 70%
    Show more